Weather History for Opa Locka, FL

Change the Weather History Date:

Monday, February 18, 2013

  Actual Average Record
Temperature  
Mean Temperature 60 °F -  
Max Temperature 72 °F 78 °F 88 °F (1967)
Min Temperature 48 °F 60 °F 33 °F (1997)
Degree Days  
Heating Degree Days 5    
Growing Degree Days 10 (Base 50)    
Moisture  
Dew Point 44 °F    
Average Humidity 54    
Maximum Humidity 61    
Minimum Humidity 40    
Precipitation  
Precipitation 0.00 in - - ()
Sea Level Pressure  
Sea Level Pressure 30.27 in    
Wind  
Wind Speed 11 mph (ENE)    
Max Wind Speed 18 mph    
Max Gust Speed 24 mph    
Visibility 10 miles    
Events      
Averages and records for this station are not official NWS values.
T = Trace of Precipitation, MM = Missing Value Source: NWS Daily Summary

Daily Weather History Graph

Daily Weather History Graph

Search for Another Location

Airport:

Trip Planner

Search our weather history database for the weather conditions in past years. The results will help you decide how hot, cold, wet, or windy it might be!

Date:

Astronomy

Feb. 18, 2013 Rise Set
Actual Time 6:53 AM EST 6:16 PM EST
Civil Twilight 6:30 AM EST 6:39 PM EST
Nautical Twilight 6:03 AM EST 7:06 PM EST
Astronomical Twilight 5:36 AM EST 7:33 PM EST
Moon 12:17 PM EST (2/18) 1:16 AM EST (2/18)
Length of Visible Light 12h 09m
Length of Day
11h 22m
First Quarter, 58% of the Moon is Illuminated
Feb 18
First Quarter
Feb 25
Full
Mar 4
Last Quarter
Mar 11
New
Mar 19
First Quarter

Hourly Weather History & Observations

Time (EST) Temp. Dew Point Humidity Pressure Visibility Wind Dir Wind Speed Gust Speed Precip Events Conditions
12:53 AM 50.0 °F 37.0 °F 61% 30.31 in 10.0 mi NNW 9.2 mph - N/A   Clear
1:53 AM 50.0 °F 36.0 °F 59% 30.30 in 10.0 mi North 11.5 mph - N/A   Clear
2:53 AM 50.0 °F 36.0 °F 59% 30.28 in 10.0 mi NNW 10.4 mph - N/A   Clear
3:53 AM 48.9 °F 35.1 °F 59% 30.27 in 10.0 mi NNW 10.4 mph - N/A   Clear
4:53 AM 48.9 °F 35.1 °F 59% 30.28 in 10.0 mi NNW 11.5 mph - N/A   Clear
5:53 AM 48.9 °F 35.1 °F 59% 30.28 in 10.0 mi North 9.2 mph - N/A   Clear
6:53 AM 48.9 °F 35.1 °F 59% 30.29 in 10.0 mi North 9.2 mph - N/A   Clear
7:53 AM 51.1 °F 36.0 °F 56% 30.30 in 10.0 mi North 11.5 mph - N/A   Clear
8:53 AM 57.0 °F 39.9 °F 53% 30.31 in 10.0 mi NNE 8.1 mph - N/A   Clear
9:53 AM 64.0 °F 43.0 °F 46% 30.32 in 10.0 mi ENE 6.9 mph - N/A   Clear
10:53 AM 70.0 °F 45.0 °F 41% 30.32 in 10.0 mi East 17.3 mph 24.2 mph N/A   Scattered Clouds
11:53 AM 72.0 °F 46.0 °F 40% 30.31 in 10.0 mi East 18.4 mph 24.2 mph N/A   Mostly Cloudy
12:53 PM 70.0 °F 48.0 °F 46% 30.30 in 10.0 mi ENE 13.8 mph 23.0 mph N/A   Mostly Cloudy
1:53 PM 71.1 °F 46.9 °F 42% 30.26 in 10.0 mi East 13.8 mph 21.9 mph N/A   Mostly Cloudy
2:53 PM 70.0 °F 48.9 °F 47% 30.25 in 10.0 mi East 16.1 mph 23.0 mph N/A   Overcast
3:53 PM 71.1 °F 48.9 °F 45% 30.24 in 10.0 mi ESE 15.0 mph 23.0 mph N/A   Mostly Cloudy
4:53 PM 70.0 °F 48.9 °F 47% 30.25 in 10.0 mi ESE 10.4 mph - N/A   Mostly Cloudy
5:53 PM 68.0 °F 50.0 °F 52% 30.25 in 10.0 mi East 12.7 mph - N/A   Mostly Cloudy
6:53 PM 66.9 °F 50.0 °F 54% 30.24 in 10.0 mi East 11.5 mph - N/A   Mostly Cloudy
7:53 PM 66.0 °F 51.1 °F 59% 30.24 in 10.0 mi East 8.1 mph - N/A   Mostly Cloudy
8:53 PM 66.9 °F 53.1 °F 61% 30.23 in 10.0 mi East 9.2 mph - N/A   Mostly Cloudy
9:53 PM 66.9 °F 53.1 °F 61% 30.23 in 10.0 mi ESE 11.5 mph - N/A   Scattered Clouds
10:53 PM 68.0 °F 54.0 °F 61% 30.23 in 10.0 mi ESE 10.4 mph - N/A   Mostly Cloudy
11:53 PM 68.0 °F 54.0 °F 61% 30.22 in 10.0 mi ESE 12.7 mph - N/A   Mostly Cloudy